Flight Track Log - Related Links

Times and Time Zones

All times are in EDT time to prevent confusion due to time zone crossing. See the N762NC flight status page for this flight to view local times or setup timezone preferences in your user account.

Time Position Orientation Groundspeed Altitude Reporting Facility
EDT Latitude Longitude Course Direction KTS MPH feet Rate Location/Type
Sun 03:39:31 PM 33.6517 -84.4781 261° West 387 445 2,700  Level Atlanta Center
Sun 03:40:25 PM 33.6667 -84.5500 284° West 266 306 5,300 2,433 Climbing Atlanta TRACON
Sun 03:42:00 PM 33.6260 -84.8775 276° West  Level Estimated
Sun 03:42:31 PM 33.7358 -84.7308 295° West 285 328 10,000  Level Atlanta Center
Sun 03:43:00 PM 33.6231 -84.9899 259° West  Level Estimated
Sun 03:43:31 PM 33.7353 -84.8331 270° West 295 339 11,200  Level Atlanta Center
Sun 03:44:00 PM 33.6201 -85.1023 261° West  Level Estimated
Sun 03:44:31 PM 33.7325 -84.9381 268° West 308 354 13,800  Level Atlanta Center
Sun 03:45:31 PM 33.7297 -85.0428 268° West 313 360 16,300 2,050 Climbing Atlanta Center
Sun 03:46:31 PM 33.7267 -85.1353 268° West 313 360 17,900 1,650 Climbing Atlanta Center
Sun 03:47:31 PM 33.7236 -85.2478 268° West 318 366 19,600 1,050 Climbing Atlanta Center
Sun 03:48:31 PM 33.7183 -85.3650 267° West 342 394 20,000 100 Climbing Atlanta Center
Sun 03:49:31 PM 33.7231 -85.4875 273° West 362 417 19,800 -1,200 Descending Atlanta Center
Sun 03:50:31 PM 33.7383 -85.6025 279° West 367 422 17,600 -2,000 Descending Atlanta Center
Sun 03:51:31 PM 33.7328 -85.7100 266° West 337 388 15,800 -1,850 Descending Atlanta Center
Sun 03:52:31 PM 33.7186 -85.8219 261° West 325 374 13,900 -1,850 Descending Atlanta Center
Sun 03:53:31 PM 33.7089 -85.9317 264° West 330 380 12,100 -1,862 Descending Atlanta Center
Sun 03:53:58 PM 33.7017 -85.9914 262° West 340 391 11,200 -1,200 Descending Atlanta Center
Sun 03:54:31 PM 33.6986 -86.0489 266° West 336 387 10,900 -197 Descending Atlanta Center
Sun 03:54:59 PM 33.6978 -86.1036 269° West 338 389 11,000 100 Climbing Atlanta Center
Sun 03:55:31 PM 33.6967 -86.1536 268° West 336 387 11,000  Level Atlanta Center
Sun 03:55:53 PM 33.6981 -86.2011 272° West 326 375 11,000  Level Atlanta Center
Sun 03:56:31 PM 33.6969 -86.2711 269° West 336 387 11,000  Level Atlanta Center
Sun 03:56:54 PM 33.6958 -86.3183 268° West 356 410 11,000  Level Atlanta Center
Sun 03:57:31 PM 33.6925 -86.3883 267° West 348 400 11,000  Level Atlanta Center
Sun 03:58:00 PM 33.6769 -86.4378 249° West 341 392 11,000 -700 Level Atlanta Center
Sun 03:58:31 PM 33.6572 -86.4822 242° Southwest 319 367 10,300 -984 Descending Atlanta Center
Sun 03:59:01 PM 33.6356 -86.5239 238° Southwest 279 321 10,000 -1,100 Descending Atlanta Center
Sun 03:59:31 PM 33.6225 -86.5583 246° West 300 345 9,200 -1,574 Descending Atlanta Center
Sun 04:00:02 PM 33.5986 -86.6025 237° Southwest 254 292 8,400 -1,500 Descending Atlanta Center
Sun 04:00:31 PM 33.5814 -86.6294 233° Southwest 273 314 7,700 -1,727 Descending Atlanta Center
Sun 04:01:08 PM 33.5489 -86.6733 228° Southwest 254 292 6,500 -1,800 Descending Atlanta Center
Sun 04:01:31 PM 33.5339 -86.6928 227° Southwest 262 302 5,900 -1,475 Descending Atlanta Center
Sun 04:02:09 PM 33.5017 -86.7392 230° Southwest 259 298 5,000 -1,000 Descending Atlanta Center
Sun 04:02:31 PM 33.4886 -86.7589 232° Southwest 262 302 4,900 -98 Descending Atlanta Center
Sun 04:03:10 PM 33.4586 -86.8000 229° Southwest 229 264 4,900 -968 Level Atlanta Center
Sun 04:04:04 PM 33.4303 -86.8539 238° Southwest 216 249 3,400 -992 Descending Atlanta Center
Sun 04:05:17 PM 33.4750 -86.9028 318° Northwest 205 236 2,800 -586 Descending Atlanta Center
Sun 04:06:17 PM 33.5075 -86.8489 54° Northeast 175 201 2,100 -730 Descending Atlanta Center
Sun 04:07:12 PM 33.5292 -86.8125 54° Northeast 161 185 1,400 -764 Descending Atlanta Center

Login

Don't have an account? Register now (free) for customized features, flight alerts, and more!